Location: Forestville
(38.4740°N, 122.8890°W)
Time: 01:05:19
(UTC-07:00)

Amateur Radio Satellites - All Passes

Search period start: 21 September 2014 00:35
Search period end: 22 September 2014 00:35
Location: Forestville, 38.4740°N, 122.8890°W

Satellite Date Start Highest point End Downlink Frequencies (MHz)
Time Altitude Azimuth
Saudisat 1A 21 Sep 01:22:48 01:26:26 24° 49° (NE) 01:30:02 436.775 MHz
UOSAT-12 21 Sep 01:55:27 01:58:09 15° 318° (NW) 02:00:53 437.025 FM, 437.400 FM
Oscar 16 21 Sep 01:57:30 02:01:47 26° 95° (E) 02:06:02 437.025 USB, Beacon 2401.1428
AO-Echo 21 Sep 02:00:11 02:01:54 12° 91° (E) 02:03:37 ?
PANSAT 21 Sep 02:02:37 02:05:04 16° 172° (S) 02:07:31 not established
ISS 21 Sep 02:31:00 02:34:19 86° 143° (SE) 02:37:40 145.800 FM
Gurwin Techsat 1B 21 Sep 02:42:57 02:45:24 13° 90° (E) 02:47:51 435.225 FM
ITAMSAT 1 21 Sep 02:43:54 02:48:26 29° 96° (E) 02:52:57 435.822 SSB
Uribyol 2 21 Sep 02:47:34 02:52:18 34° 97° (E) 02:57:01 436.500 FM
JAS-1B 21 Sep 02:55:41 03:01:06 44° 99° (E) 03:06:36 435.800 - 435.900 CW/SSB
Oscar 19 21 Sep 02:56:58 03:02:10 85° 284° (WNW) 03:07:18 437.125 CW, 437.150 USB
Saudisat 1A 21 Sep 03:02:03 03:06:04 35° 246° (WSW) 03:10:03 436.775 MHz
TMSAT-1 21 Sep 03:17:39 03:21:41 22° 94° (E) 03:25:41 436.925 FM
AO-27 21 Sep 03:18:52 03:24:04 66° 102° (ESE) 03:29:15 436.795 MHz FM
KITSAT 1 21 Sep 03:35:10 03:42:11 31° 46° (NE) 03:49:10 435.175 FM
AO-Echo 21 Sep 03:36:12 03:41:03 69° 285° (WNW) 03:46:03 ?
Oscar 16 21 Sep 03:36:30 03:41:09 35° 291° (WNW) 03:45:47 437.025 USB, Beacon 2401.1428
PANSAT 21 Sep 03:42:01 03:44:37 17° 185° (S) 03:47:12 not established
RS-15 21 Sep 03:54:15 04:04:47 52° 111° (ESE) 04:15:07 29.354 - 29.394 USB, Beacon 29.352 USB
ISS 21 Sep 04:09:11 04:11:25 17° 338° (NNW) 04:13:39 145.800 FM
Gurwin Techsat 1B 21 Sep 04:20:33 04:25:51 70° 286° (WNW) 04:31:06 435.225 FM
AO-7 21 Sep 04:21:29 04:27:51 24° 94° (E) 04:34:10 29.400 - 29.500 MHz
ITAMSAT 1 21 Sep 04:23:18 04:27:52 32° 292° (WNW) 04:32:26 435.822 SSB
Uribyol 2 21 Sep 04:27:15 04:31:37 28° 293° (WNW) 04:35:59 436.500 FM
Oscar 19 21 Sep 04:40:29 04:40:39 10° 301° (WNW) 04:40:49 437.125 CW, 437.150 USB
JAS-1B 21 Sep 04:47:15 04:51:30 22° 297° (WNW) 04:55:46 435.800 - 435.900 CW/SSB
Uosat F 21 Sep 04:48:20 04:52:29 26° 96° (E) 04:56:38 435.120 FM
TMSAT-1 21 Sep 04:56:45 05:01:45 43° 289° (WNW) 05:06:44 436.925 FM
OPAL 21 Sep 04:58:45 05:03:55 78° 73° (ENE) 05:09:09 ?
AO-27 21 Sep 05:00:05 05:03:00 15° 298° (WNW) 05:05:55 436.795 MHz FM
JAS-2 21 Sep 05:25:07 05:27:04 11° 90° (E) 05:29:04 435.800 - 435.900 CW/SSB, 435.910 FM
KITSAT 1 21 Sep 05:30:08 05:38:05 63° 246° (WSW) 05:45:59 435.175 FM
SO-50 21 Sep 05:37:57 05:39:09 11° 38° (NE) 05:40:20 436.795 FM
STRAND 1 21 Sep 05:45:56 05:48:02 13° 61° (ENE) 05:50:08 ?
RS-15 21 Sep 06:06:46 06:17:12 46° 313° (NW) 06:27:37 29.354 - 29.394 USB, Beacon 29.352 USB
AO-7 21 Sep 06:12:59 06:21:11 69° 291° (WNW) 06:29:23 29.400 - 29.500 MHz
Hamsat 21 Sep 06:26:28 06:30:07 28° 96° (E) 06:33:43 145.90 MHz
Uosat F 21 Sep 06:26:47 06:31:17 34° 291° (WNW) 06:35:46 435.120 FM
OPAL 21 Sep 06:41:41 06:43:20 11° 268° (W) 06:44:59 ?
JAS-2 21 Sep 07:06:26 07:12:38 83° 104° (ESE) 07:19:39 435.800 - 435.900 CW/SSB, 435.910 FM
SO-50 21 Sep 07:15:48 07:20:36 67° 57° (ENE) 07:25:26 436.795 FM
STRAND 1 21 Sep 07:21:28 07:26:32 77° 257° (WSW) 07:31:39 ?
ISS 21 Sep 07:25:24 07:27:11 14° 19° (NNE) 07:28:59 145.800 FM
Hamsat 21 Sep 08:02:38 08:05:55 22° 291° (WNW) 08:09:11 145.90 MHz
AO-7 21 Sep 08:08:24 08:12:29 15° 311° (NW) 08:16:34 29.400 - 29.500 MHz
MaSat-1 21 Sep 08:12:34 08:17:30 63° 111° (ESE) 08:22:23 437.345 MHz
SO-67 21 Sep 08:18:02 08:21:30 82° 102° (ESE) 08:24:56 435.3500 MHz FM
RS-15 21 Sep 08:26:30 08:33:24 18° 344° (NNW) 08:40:21 29.354 - 29.394 USB, Beacon 29.352 USB
UOSAT-12 21 Sep 08:43:59 08:48:31 44° 54° (NE) 08:52:58 437.025 FM, 437.400 FM
JAS-2 21 Sep 08:53:36 08:57:08 16° 298° (WNW) 09:00:52 435.800 - 435.900 CW/SSB, 435.910 FM
HO-68 21 Sep 08:57:45 09:02:35 19° 92° (E) 09:07:23 435.675 MHz FM
SO-50 21 Sep 08:58:15 09:00:37 14° 252° (WSW) 09:02:59 436.795 FM
ISS 21 Sep 09:01:08 09:04:27 62° 37° (NE) 09:07:44 145.800 FM
Oscar 11 21 Sep 09:44:02 09:45:00 11° 90° (E) 09:45:58 145.825 FM, Beacon 2401.500 USB
MaSat-1 21 Sep 09:51:17 09:54:36 18° 307° (NW) 09:57:51 437.345 MHz
UKube-1 21 Sep 10:00:28 10:03:57 23° 96° (E) 10:07:26 145.840 MHz, 145.915 MHz
UOSAT-12 21 Sep 10:24:56 10:28:20 20° 250° (WSW) 10:31:41 437.025 FM, 437.400 FM
ISS 21 Sep 10:39:18 10:40:46 12° 232° (SW) 10:42:14 145.800 FM
HO-68 21 Sep 10:43:42 10:50:52 74° 289° (WNW) 10:58:00 435.675 MHz FM
RS-15 21 Sep 10:44:15 10:51:52 20° 22° (NNE) 10:59:36 29.354 - 29.394 USB, Beacon 29.352 USB
Sapphire 21 Sep 11:01:22 11:04:33 16° 104° (ESE) 11:07:44 437.095 MHz 1200 baud AX-25 AFSK
FUNcube-1 21 Sep 11:12:16 11:16:44 46° 99° (E) 11:21:06 145.950 - 145.970 MHz USB
Oscar 11 21 Sep 11:17:16 11:21:33 60° 285° (WNW) 11:25:48 145.825 FM, Beacon 2401.500 USB
PCSat 21 Sep 11:26:25 11:31:05 30° 109° (ESE) 11:35:46 145.825 MHz
UKube-1 21 Sep 11:36:23 11:40:07 28° 291° (WNW) 11:43:51 145.840 MHz, 145.915 MHz
HO-68 21 Sep 12:34:10 12:37:21 14° 307° (NW) 12:40:31 435.675 MHz FM
Oscar 19 21 Sep 12:36:01 12:38:46 15° 62° (ENE) 12:41:31 437.125 CW, 437.150 USB
Sapphire 21 Sep 12:42:02 12:47:23 63° 300° (WNW) 12:52:47 437.095 MHz 1200 baud AX-25 AFSK
FUNcube-1 21 Sep 12:49:47 12:52:42 17° 295° (WNW) 12:55:36 145.950 - 145.970 MHz USB
RS-15 21 Sep 12:56:34 13:07:28 56° 51° (NE) 13:18:44 29.354 - 29.394 USB, Beacon 29.352 USB
AO-27 21 Sep 13:01:22 13:02:05 10° 59° (ENE) 13:02:49 436.795 MHz FM
PCSat 21 Sep 13:09:26 13:14:22 35° 306° (NW) 13:19:21 145.825 MHz
AO-Echo 21 Sep 13:12:13 13:14:27 13° 63° (ENE) 13:16:41 ?
Oscar 16 21 Sep 13:12:58 13:17:34 33° 69° (ENE) 13:22:12 437.025 USB, Beacon 2401.1428
JAS-1B 21 Sep 13:37:43 13:45:28 42° 69° (ENE) 13:52:03 435.800 - 435.900 CW/SSB
ITAMSAT 1 21 Sep 14:00:31 14:05:16 39° 70° (ENE) 14:10:02 435.822 SSB
Gurwin Techsat 1B 21 Sep 14:02:16 14:05:59 20° 64° (ENE) 14:09:42 435.225 FM
Uribyol 2 21 Sep 14:04:01 14:08:53 44° 71° (ENE) 14:13:48 436.500 FM
Oscar 19 21 Sep 14:12:20 14:17:29 69° 258° (WSW) 14:22:42 437.125 CW, 437.150 USB
Sapphire 21 Sep 14:30:39 14:31:55 11° 320° (NW) 14:33:11 437.095 MHz 1200 baud AX-25 AFSK
AO-27 21 Sep 14:35:36 14:40:46 86° 75° (ENE) 14:45:58 436.795 MHz FM
TMSAT-1 21 Sep 14:36:56 14:41:28 30° 68° (ENE) 14:46:01 436.925 FM
AO-Echo 21 Sep 14:48:02 14:52:43 61° 259° (W) 14:57:22 ?
Oscar 16 21 Sep 14:52:31 14:56:54 28° 264° (W) 15:01:19 437.025 USB, Beacon 2401.1428
RS-15 21 Sep 15:09:21 15:19:30 42° 252° (WSW) 15:30:05 29.354 - 29.394 USB, Beacon 29.352 USB
AO-7 21 Sep 15:19:04 15:26:02 31° 59° (ENE) 15:32:58 29.400 - 29.500 MHz
JAS-1B 21 Sep 15:28:01 15:35:57 40° 261° (W) 15:42:46 435.800 - 435.900 CW/SSB
Gurwin Techsat 1B 21 Sep 15:40:24 15:45:32 51° 260° (W) 15:50:42 435.225 FM
ITAMSAT 1 21 Sep 15:40:46 15:44:50 23° 265° (W) 15:48:56 435.822 SSB
Uribyol 2 21 Sep 15:44:47 15:48:33 20° 266° (W) 15:52:20 436.500 FM
Uosat F 21 Sep 16:00:15 16:04:36 31° 68° (ENE) 16:08:58 435.120 FM
TMSAT-1 21 Sep 16:16:36 16:21:17 32° 263° (W) 16:25:59 436.925 FM
Saudisat 1A 21 Sep 17:06:28 17:10:52 84° 120° (ESE) 17:15:17 436.775 MHz
AO-7 21 Sep 17:10:10 17:18:19 59° 257° (WSW) 17:26:30 29.400 - 29.500 MHz
OPAL 21 Sep 17:11:05 17:15:06 23° 96° (E) 17:19:04 ?
Hamsat 21 Sep 17:19:01 17:22:00 18° 67° (ENE) 17:24:59 145.90 MHz
JAS-2 21 Sep 17:19:23 17:23:36 25° 67° (ENE) 17:27:48 435.800 - 435.900 CW/SSB, 435.910 FM
Uosat F 21 Sep 17:39:06 17:43:20 28° 264° (W) 17:47:36 435.120 FM
KITSAT 1 21 Sep 18:03:38 18:09:28 22° 103° (ESE) 18:15:18 435.175 FM
MaSat-1 21 Sep 18:07:25 18:11:06 87° 247° (WSW) 18:14:14 437.345 MHz
Saudisat 1A 21 Sep 18:49:04 18:51:02 13° 318° (NW) 18:53:01 436.775 MHz
OPAL 21 Sep 18:49:18 18:54:06 40° 292° (WNW) 18:58:48 ?
SO-67 21 Sep 18:50:09 18:52:46 20° 71° (ENE) 18:55:22 435.3500 MHz FM
Hamsat 21 Sep 18:53:37 18:57:40 37° 262° (W) 19:01:43 145.90 MHz
JAS-2 21 Sep 19:03:53 19:08:36 33° 263° (W) 19:13:16 435.800 - 435.900 CW/SSB, 435.910 FM
HO-68 21 Sep 19:27:32 19:30:40 13° 53° (NE) 19:33:48 435.675 MHz FM
STRAND 1 21 Sep 19:33:42 19:38:32 40° 99° (E) 19:43:21 ?
Sapphire 21 Sep 19:50:13 19:52:30 13° 42° (NE) 19:54:46 437.095 MHz 1200 baud AX-25 AFSK
KITSAT 1 21 Sep 19:55:58 20:04:02 74° 301° (WNW) 20:12:09 435.175 FM
PCSat 21 Sep 20:15:46 20:19:48 21° 48° (NE) 20:23:48 145.825 MHz
SO-67 21 Sep 20:23:09 20:25:41 19° 265° (W) 20:28:14 435.3500 MHz FM
UKube-1 21 Sep 20:55:17 20:58:12 18° 66° (ENE) 21:01:08 145.840 MHz, 145.915 MHz
HO-68 21 Sep 21:10:03 21:17:09 74° 71° (ENE) 21:24:17 435.675 MHz FM
STRAND 1 21 Sep 21:13:29 21:17:27 23° 294° (WNW) 21:21:26 ?
SO-50 21 Sep 21:30:02 21:33:52 29° 113° (ESE) 21:37:47 436.795 FM
Sapphire 21 Sep 21:31:25 21:36:52 75° 61° (ENE) 21:42:16 437.095 MHz 1200 baud AX-25 AFSK
KITSAT 1 21 Sep 21:55:25 22:00:55 19° 323° (NW) 22:06:25 435.175 FM
PCSat 21 Sep 21:58:16 22:03:37 60° 246° (WSW) 22:08:55 145.825 MHz
FUNcube-1 21 Sep 22:07:23 22:11:16 31° 70° (ENE) 22:15:15 145.950 - 145.970 MHz USB
Oscar 11 21 Sep 22:10:26 22:14:48 87° 76° (ENE) 22:19:11 145.825 FM, Beacon 2401.500 USB
UKube-1 21 Sep 22:30:05 22:34:06 38° 261° (W) 22:38:09 145.840 MHz, 145.915 MHz
UOSAT-12 21 Sep 22:55:10 22:58:15 18° 109° (ESE) 23:01:23 437.025 FM, 437.400 FM
HO-68 21 Sep 23:00:42 23:05:26 19° 268° (W) 23:10:12 435.675 MHz FM
SO-50 21 Sep 23:10:25 23:14:21 29° 310° (NW) 23:18:23 436.795 FM
AO-40 21 Sep 23:13:41 23:48:00 11° 106° (ESE) 00:15:47 Beacon 2401.320
Sapphire 21 Sep 23:17:07 23:19:34 13° 257° (WSW) 23:22:01 437.095 MHz 1200 baud AX-25 AFSK
FUNcube-1 21 Sep 23:44:13 23:47:40 22° 266° (W) 23:51:11 145.950 - 145.970 MHz USB
